Preview of NWS' New Version of Forecast
This preview is not operational and should not be used for support decisions.
Latest weather observations around

Auburn-Opelika Airport (KAUO)

Using International System of Units (Switch to English Units)
Date/ Time (CDT) Wind (kph) Vis. (km) Weather Sky Cond. Temp (°C) Rel. Humidity Wind Chill (°C) Heat Index (°C) Pressure Precip. (cm)
Air Dwpt 6 hour Altimeter (hPa) Sea level (hPa) 1 hr 3 hr 6 hr
Max Min
May 28 02:56 NE 17 16.09 Light Rain OVC007 21 21     100%     1010.2 1011 0    
May 27 23:56 NE 15 12.87 Rain OVC008 21 20     96%     1011.9 1013 0    
May 27 21:56 NE 11 16.09 Light Rain FEW041 21 19     90%     1012.9 1014 0 0  
May 27 20:56 ENE 13 16.09 Light Rain CLR 23 19     79%   23 1012.5 1013.7 0    
May 27 19:56 ENE 15 16.09 Light Rain FEW045 23 19     76%   24 1011.9 1013.1 0    
May 27 18:56 E 21 16.09 Light Rain SCT026 BKN036 24 19     76%   24 1011.5 1012.7 0   0
May 27 17:56 E 18 16.09 Clear   26 19     67%   27 1011.2 1012.4      
May 27 17:31 E 18 12.87 Clear CLR 26 19     65%   26 1011.5        
May 27 17:29 E 15 1.61 Haze CLR 26 19     65%   26 1011.5        
May 27 17:19 ENE 13 0.4 Clear CLR 26 20     70%   26 1011.5        
May 27 17:17 ENE 15 1.61 Haze CLR 26 20     70%   26 1011.5        
May 27 16:56 E 11 16.09 Clear CLR 27 20     67%   28 1011.5 1012.6      
May 27 15:56 E 17 16.09 Partly Cloudy SCT040 28 19     60%   29 1011.9 1012.9      
May 27 14:56 E 17 16.09 Mostly Cloudy SCT036 BKN045 28 20     63%   29 1012.2 1013.3      
May 27 13:56 NE 18 16.09 Partly Cloudy SCT038 28 20     63%   29 1012.9 1013.8      
May 27 13:27 ENE 21 16.09 Partly Cloudy SCT029 28 20     62%   30 1012.9        
May 27 13:15 E 21 16.09 Mostly Cloudy BKN029 BKN037 28 21     66%   30 1013.2        
May 27 13:08 E 17 16.09 Mostly Cloudy SCT029 BKN034 28 21     66%   30 1013.2        
May 27 12:56 E 21 16.09 Mostly Cloudy BKN029 BKN041 BKN055 27 21     69%   29 1013.6 1014.4      
May 27 12:29 ENE 15 16.09 Mostly Cloudy SCT025 BKN032 BKN041 27 21     70%   29 1013.9        
May 27 11:56 NE 13 16.09 Mostly Cloudy BKN022 27 22     74%   29 1014.2 1015.2      
May 27 10:56 NE 21 16.09 Clear CLR 26 21     76%   26 1014.6 1015.6      
May 27 09:56 ENE 15 16.09 Clear CLR 24 21     82%   24 1014.6 1015.7      
May 27 08:56 E 9 16.09 Clear CLR 23 21     87%   23 1014.9 1015.9      
May 27 07:56 ENE 9 16.09 Clear CLR 22 21     93%   22 1014.9 1015.9      
May 27 07:07 NE 8 16.09 Clear CLR 21 21     100%     1014.6        
May 27 06:56 ENE 9 2.01 Fog/Mist CLR 21 20     96%     1014.6 1015.7      
May 27 05:56 E 5 16.09 Mostly Cloudy BKN060 BKN080 21 20     96%     1014.2 1015.5      
May 27 04:56 ENE 5 14.48 Mostly Cloudy BKN060 21 20     96%     1013.9 1014.8      
May 27 03:56 Calm 16.09 Partly Cloudy SCT060 21 21     100%     1013.9 1014.7      
May 27 02:56 Calm 16.09 Clear CLR 21 20     96%     1013.9 1014.6      
May 27 01:56 Calm 16.09 Clear CLR 21 21     97%     1013.9 1014.7      
May 27 01:07 Calm 14.48 Partly Cloudy SCT002 21 21     100%     1013.9        
May 27 00:56 Calm 11.27 Mostly Cloudy BKN002 21 21     97%     1013.9 1015     0
May 27 00:37 ESE 5 4.02 Fog/Mist BKN002 21 21     100%     1014.2        
May 27 00:29 ESE 5 12.87 Partly Cloudy SCT002 21 21     100%     1014.2        
May 26 23:56 ESE 5 16.09 Mostly Clear FEW110 21 21     97%     1014.6 1015.6      
May 26 22:56 Calm 16.09 Clear CLR 21 21     97%     1014.6 1015.7      
May 26 21:56 SE 8 16.09 Clear CLR 22 21     93%   22 1014.6 1015.6   0  
May 26 20:56 SSE 11 16.09 Clear CLR 22 21     91%   23 1013.9 1014.9      
May 26 20:49 SE 8 16.09 Clear CLR 22 21     94%   23 1013.6        
May 26 19:56 SSE 13 16.09 Thunderstorms CLR 23 21     85%   24 1013.2 1014.4 0    
May 26 18:56 SSE 11 16.09 Clear CLR 24 21     84%   25 1012.9 1014.2 0   0
May 26 17:56 SSE 11 16.09 Light Rain FEW028 SCT041 BKN055 24 22     85%   25 1012.5 1013.8 0    
May 26 16:56 S 13 16.09 Partly Cloudy SCT048 28 21     63%   30 1012.5 1013.5      
May 26 15:56 SE 11 16.09 Clear CLR 29 21     61%   31 1012.5 1013.4      
May 26 14:56 Calm 16.09 Mostly Clear FEW040 29 20     59%   31 1012.9 1013.7      
May 26 13:56 Calm 16.09 Clear CLR 28 20     61%   30 1013.6 1014.5      
May 26 13:37 SSE 11 16.09 Clear CLR 28 21     66%   30 1013.9        
May 26 13:22 Calm 16.09 Thunderstorms FEW041 SCT060 28 20     62%   30 1014.2        
May 26 12:56 WSW 8 16.09 Partly Cloudy FEW042 SCT060 28 21     65%   30 1014.6 1015.6      
May 26 12:04 W 9 16.09 Partly Cloudy SCT029 27 21     70%   29 1015.2        
May 26 11:56 NNW 8 16.09 Mostly Cloudy BKN029 BKN037 27 21     71%   28 1015.2 1016.4      
May 26 11:04 SSW 8 16.09 Mostly Cloudy BKN025 27 21     70%   29 1015.6        
May 26 10:56 5 16.09 Mostly Cloudy SCT023 BKN030 27 21     69%   28 1015.9 1016.8      
May 26 10:30 Calm 8.05 Haze BKN021 BKN029 26 21     74%   27 1015.9        
May 26 09:56 Calm 16.09 Clear CLR 26 21     76%   26 1015.9 1017.1      
May 26 08:56 5 16.09 Clear CLR 23 21     90%   23 1015.9 1017.4      
May 26 07:56 SE 5 16.09 Mostly Clear FEW003 21 21     97%     1015.9 1017.1      
May 26 07:29 SE 5 16.09 Partly Cloudy SCT001 20 20     100%     1015.6        
May 26 06:56 SE 9 6.44 Fog/Mist OVC001 19 19     100%     1015.6 1016.6     0
May 26 06:51 SE 8 4.02 Fog/Mist OVC001 19 19     100%     1015.2        
May 26 06:43 SE 5 2.41 Fog/Mist OVC001 19 19     100%     1015.2        
May 26 06:37 SE 8 1.61 Fog/Mist OVC003 19 19     100%     1015.2        
May 26 06:34 SE 8 0.8 Fog BKN003 19 19     100%     1015.2        
May 26 06:25 SE 9 1.21 Fog/Mist BKN003 19 19     100%     1014.9        
May 26 06:22 SE 9 2.82 Fog/Mist BKN003 19 19     100%     1014.9        
May 26 06:18 SE 9 11.27 Partly Cloudy SCT003 19 19     100%     1014.9        
May 26 05:56 SSE 9 16.09 Clear CLR 19 19     100%     1014.6 1015.6      
May 26 04:56 Calm 9.66 Fog/Mist CLR 19 19     100%     1013.9 1015.1      
May 26 03:56 Calm 14.48 Clear CLR 20 20     100%     1013.9 1015 0 0  
May 26 02:56 Calm 16.09 Clear CLR 20 20     100%     1013.9 1015.2      
May 26 01:56 Calm 16.09 Clear CLR 21 20     96%     1014.6 1015.5      
May 26 01:10 SE 5   Mostly Clear FEW009 21 20     94%     1014.9        
May 26 00:56 Calm   Mostly Clear FEW025 21 20     96%     1015.2 1016.1     1
May 25 23:56 SE 5   Clear CLR 21 20     96%     1015.2 1016.4 0    
May 25 22:56 E 5   Clear CLR 21 20     96%     1015.9 1016.9 0    
May 25 21:56 Calm   Cloudy FEW038 BKN047 OVC060 20 19     96%     1016.3 1017.6 0 1  
May 25 21:08 WSW 9   Cloudy FEW020 BKN034 OVC044 20 19     94%     1016.3   0    
May 25 20:56 WSW 13   Cloudy FEW014 BKN021 OVC042 20 19     93%     1015.9 1017.3 1    
May 25 20:48     Mostly Cloudy FEW014 SCT021 BKN033 21 19     88%     1016.3   0    
May 25 19:56 SSE 8   Mostly Clear FEW120 24 23     91%   25 1014.9 1016.1      
May 25 18:56 SE 5 16.09 Clear CLR 25 22     84%   26 1014.6 1015.6     0
May 25 17:56 Calm   Clear CLR 26 22     82%   26 1014.2 1015.4      
May 25 16:56 Calm   Clear CLR 26 22     82%   26 1014.6 1015.5 0    
May 25 15:56 Calm 16.09 Light Rain FEW004 23 22     94%   24 1015.2 1016.2 0 0  
May 25 15:39 WSW 5 16.09 Light Rain SCT004 23 23     100%   24 1015.2   0    
May 25 15:09 SW 11 14.48 Light Rain BKN004 BKN030 OVC040 23 23     100%   24 1015.6   0    
May 25 14:56 SSW 13 11.27 Light Rain FEW004 BKN034 OVC050 23 23     97%   24 1015.6 1016.7 0    
May 25 13:56 SSE 11 16.09 Partly Cloudy FEW028 SCT100 26 22     79%   26 1016.6 1017.4      
May 25 13:47 SE 15 16.09 Mostly Clear FEW031 26 22     79%   28 1016.6        
May 25 13:28 S 11 16.09 Thunderstorms SCT026 SCT035 BKN047 27 21     70%   29 1016.3        
May 25 13:14 SSE 15 16.09 Thunderstorms BKN028 BKN036 28 21     66%   30 1016.3        
May 25 13:05 8 16.09 Partly Cloudy SCT026 28 22     70%   31 1016.6        
May 25 12:56 SSE 13 16.09 Mostly Clear FEW026 28 21     67%   30 1016.6 1017.5      
May 25 12:40 5 16.09 Thunderstorms SCT024 SCT050 27 21     70%   29 1016.9        
May 25 11:56 5 16.09 Thunderstorms BKN020 BKN027 OVC034 26 22     77%   28 1017.3 1018.4      
May 25 11:08 ESE 8 16.09 Thunderstorms BKN018 OVC029 25 22     83%   26 1018        
May 25 10:56 NE 8 16.09 Cloudy BKN020 BKN026 OVC032 26 21     76%   26 1018.3 1019.1      
May 25 09:56 ESE 5 16.09 Cloudy BKN015 OVC022 24 21     82%   25 1018.3 1019.4      
May 25 09:53 SE 8 16.09 Cloudy BKN015 OVC022 24 21     83%   25 1018.3        
May 25 08:56 E 5 16.09 Cloudy OVC011 23 22     91%   24 1018.6 1019.8      
May 25 08:09 S 9 14.48 Cloudy OVC007 23 22     94%   24 1018.6        
May 25 07:56 SE 5 12.87 Cloudy OVC005 22 22     97%   23 1018.3 1019.6      
May 25 07:46 Calm 11.27 Cloudy OVC005 22 22     100%   23 1018.3        
May 25 06:56 ENE 11 4.83 Fog/Mist OVC003 22 22     97%   23 1018.3 1019.2      
May 25 06:23 ENE 9 6.44 Fog/Mist OVC003 22 22     100%   23 1018.3        
May 25 05:56 ENE 5 4.02 Fog/Mist OVC003 22 22     100%   23 1018 1018.8      
May 25 04:56 ENE 8 11.27 Mostly Cloudy BKN003 BKN007 22 22     97%   23 1017.3 1018.3      
May 25 04:52 ENE 5 11.27 Mostly Cloudy BKN003 BKN007 22 22     100%   23 1017.3        
May 25 04:45 Calm 11.27 Mostly Cloudy SCT003 BKN007 22 22     100%   23 1017.3        
May 25 03:43 NE 5 14.48 Cloudy OVC003 22 22     100%   23 1017.3        
May 25 03:23 Calm 16.09 Cloudy BKN005 OVC009 22 22     100%   23 1016.9        
May 25 02:56 ESE 8 16.09 Cloudy OVC007 23 22     94%   24 1017.3 1018.2      
May 15 09:56 ENE 9 16.09 Cloudy BKN021 BKN026 OVC034 24 19     76%   24 1016.6 1017.7   0  
May 14 22:56 SE 9 16.09 Clear CLR 23 18     71%   24 1015.9 1016.6      
May 12 01:56 Calm 16.09 Clear CLR 21 15     70%     1019.7 1020.5      
Notice The following observation data may not be complete
Jun 12 07:35   16.09 Mostly Cloudy BKN004          %              
Jun 11 03:56 ESE 11 16.09 Clear CLR 22 18     81%   22 1019.7 1020.4      
Jun 08 23:56 Calm 16.09 Clear   20 16     78%     1013.2 1014.4      
Jun 08 19:56 Calm 16.09 Mostly Cloudy BKN050 BKN065 24 16     60%   24 1012.2 1013.2      
Jun 08 14:56 Calm 16.09 Mostly Cloudy SCT055 BKN075 26 14     48%   25 1012.2 1013.4      
Jun 08 06:56 ENE 15 16.09 Clear CLR 19 14     75%     1012.5 1013.8      
Jun 08 01:56 E 9 16.09 Cloudy BKN020 BKN026 OVC036 20 18     90%     1011.2 1012.2      
Jun 07 11:56 NE 21 16.09 Cloudy OVC021 24 19     74%   25 1009.5 1010.6      
Jun 06 10:52 NE 9 16.09 Mostly Cloudy BKN014 BKN039 25 22     83%   26 1009.2        
Jun 06 10:19 N 8 16.09 Mostly Cloudy SCT011 BKN016 BKN024 24 22     89%   25 1009.8        
Jun 06 04:38 SSE 5 16.09 Cloudy SCT002 OVC100 21 21     100%     1009.8        
Jun 05 22:56 SE 8 16.09 Light Rain SCT026 BKN036 OVC085 23 22     96%   24 1011.2 1012.1 0    
Jun 05 16:56 SW 13 16.09 Partly Cloudy FEW019 SCT075 SCT100 26 22     77%   28 1010.2 1011.2